Year,Month,Day,Hour,Minute,Value (Times are PST for temperature in C)
2015,12,08,00,00,7.50
2015,12,08,00,01,7.50
2015,12,08,00,02,7.50
2015,12,08,00,03,7.50
2015,12,08,00,04,7.50
2015,12,08,00,05,7.50
2015,12,08,00,06,7.50
2015,12,08,00,07,7.50
2015,12,08,00,08,7.50
2015,12,08,00,09,7.50
2015,12,08,00,10,7.50
2015,12,08,00,11,7.50
2015,12,08,00,12,7.50
2015,12,08,00,13,7.50
2015,12,08,00,14,7.50
2015,12,08,00,15,7.50
2015,12,08,00,16,7.50
2015,12,08,00,17,7.50
2015,12,08,00,18,7.50
2015,12,08,00,19,7.50
2015,12,08,00,20,7.50
2015,12,08,00,21,7.50
2015,12,08,00,22,7.50
2015,12,08,00,23,7.50
2015,12,08,00,24,7.50
2015,12,08,00,25,7.50
2015,12,08,00,26,7.50
2015,12,08,00,27,7.50
2015,12,08,00,28,7.50
2015,12,08,00,29,7.50
2015,12,08,00,30,7.50
2015,12,08,00,31,7.50
2015,12,08,00,32,7.50
2015,12,08,00,33,7.50
2015,12,08,00,34,7.50
2015,12,08,00,35,7.50
2015,12,08,00,36,7.50
2015,12,08,00,37,7.50
2015,12,08,00,38,7.50
2015,12,08,00,39,7.50
2015,12,08,00,40,7.50
2015,12,08,00,41,7.50
2015,12,08,00,42,7.50
2015,12,08,00,43,7.50
2015,12,08,00,44,7.50
2015,12,08,00,45,7.50
2015,12,08,00,46,7.50
2015,12,08,00,47,7.50
2015,12,08,00,48,7.50
2015,12,08,00,49,7.50
2015,12,08,00,50,7.50
2015,12,08,00,51,7.50
2015,12,08,00,52,7.50
2015,12,08,00,53,7.50
2015,12,08,00,54,7.50
2015,12,08,00,55,7.50
2015,12,08,00,56,7.50
2015,12,08,00,57,7.50
2015,12,08,00,58,7.50
2015,12,08,00,59,7.50
2015,12,08,01,00,7.50
2015,12,08,01,01,7.50
2015,12,08,01,02,7.50
2015,12,08,01,03,7.50
2015,12,08,01,04,7.50
2015,12,08,01,05,7.50
2015,12,08,01,06,7.60
2015,12,08,01,07,7.60
2015,12,08,01,08,7.60
2015,12,08,01,09,7.60
2015,12,08,01,10,7.60
2015,12,08,01,11,7.60
2015,12,08,01,12,7.60
2015,12,08,01,13,7.60
2015,12,08,01,14,7.60
2015,12,08,01,15,7.60
2015,12,08,01,16,7.60
2015,12,08,01,17,7.60
2015,12,08,01,18,7.60
2015,12,08,01,19,7.60
2015,12,08,01,20,7.60
2015,12,08,01,21,7.60
2015,12,08,01,22,7.60
2015,12,08,01,23,7.60
2015,12,08,01,24,7.60
2015,12,08,01,25,7.60
2015,12,08,01,26,7.60
2015,12,08,01,27,7.60
2015,12,08,01,28,7.60
2015,12,08,01,29,7.60
2015,12,08,01,30,7.60
2015,12,08,01,31,7.60
2015,12,08,01,32,7.60
2015,12,08,01,33,7.60
2015,12,08,01,34,7.60
2015,12,08,01,35,7.60
2015,12,08,01,36,7.60
2015,12,08,01,37,7.60
2015,12,08,01,38,7.60
2015,12,08,01,39,7.60
2015,12,08,01,40,7.60
2015,12,08,01,41,7.60
2015,12,08,01,42,7.60
2015,12,08,01,43,7.60
2015,12,08,01,44,7.60
2015,12,08,01,45,7.60
2015,12,08,01,46,7.60
2015,12,08,01,47,7.60
2015,12,08,01,48,7.60
2015,12,08,01,49,7.60
2015,12,08,01,50,7.60
2015,12,08,01,51,7.60
2015,12,08,01,52,7.60
2015,12,08,01,53,7.60
2015,12,08,01,54,7.60
2015,12,08,01,55,7.60
2015,12,08,01,56,7.60
2015,12,08,01,57,7.60
2015,12,08,01,58,7.60
2015,12,08,01,59,7.60
2015,12,08,02,00,7.60
2015,12,08,02,01,7.60
2015,12,08,02,02,7.70
2015,12,08,02,03,7.80
2015,12,08,02,04,7.80
2015,12,08,02,05,7.90
2015,12,08,02,06,7.80
2015,12,08,02,07,7.80
2015,12,08,02,08,7.90
2015,12,08,02,09,8.00
2015,12,08,02,10,8.10
2015,12,08,02,11,8.20
2015,12,08,02,12,8.30
2015,12,08,02,13,8.30
2015,12,08,02,14,8.40
2015,12,08,02,15,8.40
2015,12,08,02,16,8.50
2015,12,08,02,17,8.50
2015,12,08,02,18,8.60
2015,12,08,02,19,8.60
2015,12,08,02,20,8.50
2015,12,08,02,21,8.50
2015,12,08,02,22,8.40
2015,12,08,02,23,8.40
2015,12,08,02,24,8.30
2015,12,08,02,25,8.30
2015,12,08,02,26,8.20
2015,12,08,02,27,8.20
2015,12,08,02,28,8.20
2015,12,08,02,29,8.20
2015,12,08,02,30,8.20
2015,12,08,02,31,8.20
2015,12,08,02,32,8.20
2015,12,08,02,33,8.30
2015,12,08,02,34,8.30
2015,12,08,02,35,8.30
2015,12,08,02,36,8.30
2015,12,08,02,37,8.40
2015,12,08,02,38,8.50
2015,12,08,02,39,8.60
2015,12,08,02,40,8.60
2015,12,08,02,41,8.60
2015,12,08,02,42,8.90
2015,12,08,02,43,9.00
2015,12,08,02,44,9.10
2015,12,08,02,45,9.20
2015,12,08,02,46,9.30
2015,12,08,02,47,9.40
2015,12,08,02,48,9.50
2015,12,08,02,49,9.50
2015,12,08,02,50,9.60
2015,12,08,02,51,9.70
2015,12,08,02,52,9.80
2015,12,08,02,53,9.80
2015,12,08,02,54,9.90
2015,12,08,02,55,10.00
2015,12,08,02,56,10.00
2015,12,08,02,57,10.10
2015,12,08,02,58,10.10
2015,12,08,02,59,10.10
2015,12,08,03,00,10.10
2015,12,08,03,01,10.10
2015,12,08,03,02,10.10
2015,12,08,03,06,10.20
2015,12,08,03,07,10.20
2015,12,08,03,08,10.20
2015,12,08,03,09,10.20
2015,12,08,03,10,10.20
2015,12,08,03,11,10.20
2015,12,08,03,12,10.20
2015,12,08,03,13,10.20
2015,12,08,03,14,10.20
2015,12,08,03,15,10.20
2015,12,08,03,16,10.20
2015,12,08,03,17,10.20
2015,12,08,03,18,10.20
2015,12,08,03,19,10.20
2015,12,08,03,20,10.20
2015,12,08,03,21,10.20
2015,12,08,03,22,10.20
2015,12,08,03,23,10.10
2015,12,08,03,24,10.10
2015,12,08,03,25,10.10
2015,12,08,03,26,10.10
2015,12,08,03,27,10.00
2015,12,08,03,28,10.00
2015,12,08,03,29,9.90
2015,12,08,03,30,9.90
2015,12,08,03,31,9.80
2015,12,08,03,32,9.80
2015,12,08,03,33,9.80
2015,12,08,03,34,9.80
2015,12,08,03,35,9.70
2015,12,08,03,36,9.70
2015,12,08,03,37,9.70
2015,12,08,03,38,9.60
2015,12,08,03,39,9.60
2015,12,08,03,40,9.60
2015,12,08,03,41,9.60
2015,12,08,03,42,9.60
2015,12,08,03,43,9.60
2015,12,08,03,44,9.50
2015,12,08,03,45,9.50
2015,12,08,03,46,9.50
2015,12,08,03,47,9.50
2015,12,08,03,48,9.50
2015,12,08,03,49,9.50
2015,12,08,03,50,9.50
2015,12,08,03,51,9.50
2015,12,08,03,52,9.50
2015,12,08,03,53,9.50
2015,12,08,03,54,9.40
2015,12,08,03,55,9.40
2015,12,08,03,56,9.40
2015,12,08,03,57,9.40
2015,12,08,03,58,9.40
2015,12,08,03,59,9.40
2015,12,08,04,00,9.40
2015,12,08,04,01,9.40
2015,12,08,04,02,9.40
2015,12,08,04,03,9.40
2015,12,08,04,04,9.40
2015,12,08,04,05,9.40
2015,12,08,04,06,9.30
2015,12,08,04,07,9.30
2015,12,08,04,08,9.30
2015,12,08,04,09,9.30
2015,12,08,04,10,9.30
2015,12,08,04,11,9.30
2015,12,08,04,12,9.30
2015,12,08,04,13,9.30
2015,12,08,04,14,9.30
2015,12,08,04,15,9.30
2015,12,08,04,16,9.20
2015,12,08,04,17,9.20
2015,12,08,04,18,9.20
2015,12,08,04,19,9.20
2015,12,08,04,20,9.20
2015,12,08,04,21,9.20
2015,12,08,04,22,9.20
2015,12,08,04,23,9.20
2015,12,08,04,24,9.20
2015,12,08,04,25,9.10
2015,12,08,04,26,9.10
2015,12,08,04,27,9.10
2015,12,08,04,28,9.10
2015,12,08,04,29,9.10
2015,12,08,04,30,9.10
2015,12,08,04,31,9.10
2015,12,08,04,32,9.10
2015,12,08,04,33,9.10
2015,12,08,04,34,9.10
2015,12,08,04,35,9.10
2015,12,08,04,36,9.10
2015,12,08,04,37,9.10
2015,12,08,04,38,9.10
2015,12,08,04,39,9.10
2015,12,08,04,40,9.10
2015,12,08,04,41,9.10
2015,12,08,04,42,9.10
2015,12,08,04,43,9.10
2015,12,08,04,44,9.10
2015,12,08,04,45,9.10
2015,12,08,04,46,9.10
2015,12,08,04,47,9.10
2015,12,08,04,48,9.10
2015,12,08,04,49,9.10
2015,12,08,04,50,9.10
2015,12,08,04,51,9.10
2015,12,08,04,52,9.10
2015,12,08,04,53,9.10
2015,12,08,04,54,9.10
2015,12,08,04,55,9.10
2015,12,08,04,56,9.10
2015,12,08,04,57,9.10
2015,12,08,04,58,9.10
2015,12,08,04,59,9.10
2015,12,08,05,00,9.10
2015,12,08,05,01,9.10
2015,12,08,05,02,9.10
2015,12,08,05,03,9.10
2015,12,08,05,04,9.10
2015,12,08,05,05,9.10
2015,12,08,05,06,9.10
2015,12,08,05,07,9.10
2015,12,08,05,08,9.10
2015,12,08,05,09,9.10
2015,12,08,05,10,9.10
2015,12,08,05,11,9.10
2015,12,08,05,12,9.10
2015,12,08,05,13,9.10
2015,12,08,05,14,9.10
2015,12,08,05,15,9.10
2015,12,08,05,16,9.10
2015,12,08,05,17,9.10
2015,12,08,05,18,9.10
2015,12,08,05,19,9.10
2015,12,08,05,20,9.10
2015,12,08,05,21,9.10
2015,12,08,05,22,9.20
2015,12,08,05,23,9.10
2015,12,08,05,24,9.10
2015,12,08,05,25,9.10
2015,12,08,05,26,9.10
2015,12,08,05,27,9.10
2015,12,08,05,28,9.10
2015,12,08,05,29,9.10
2015,12,08,05,30,9.10
2015,12,08,05,31,9.10
2015,12,08,05,32,9.10
2015,12,08,05,33,9.10
2015,12,08,05,34,9.10
2015,12,08,05,35,9.10
2015,12,08,05,36,9.10
2015,12,08,05,37,9.10
2015,12,08,05,38,9.10
2015,12,08,05,39,9.10
2015,12,08,05,40,9.20
2015,12,08,05,41,9.20
2015,12,08,05,42,9.20
2015,12,08,05,43,9.20
2015,12,08,05,44,9.20
2015,12,08,05,45,9.20
2015,12,08,05,46,9.20
2015,12,08,05,47,9.20
2015,12,08,05,48,9.20
2015,12,08,05,49,9.20
2015,12,08,05,50,9.20
2015,12,08,05,51,9.20
2015,12,08,05,52,9.20
2015,12,08,05,53,9.20
2015,12,08,05,54,9.20
2015,12,08,05,55,9.20
2015,12,08,05,56,9.20
2015,12,08,05,57,9.20
2015,12,08,05,58,9.20
2015,12,08,05,59,9.20
2015,12,08,06,00,9.20
2015,12,08,06,01,9.20
2015,12,08,06,02,9.20
2015,12,08,06,03,9.30
2015,12,08,06,04,9.30
2015,12,08,06,05,9.40
2015,12,08,06,06,9.50
2015,12,08,06,07,9.50
2015,12,08,06,08,9.50
2015,12,08,06,09,9.50
2015,12,08,06,10,9.50
2015,12,08,06,11,9.50
2015,12,08,06,12,9.50
2015,12,08,06,13,9.50
2015,12,08,06,14,9.50
2015,12,08,06,15,9.60
2015,12,08,06,16,9.60
2015,12,08,06,17,9.60
2015,12,08,06,18,9.60
2015,12,08,06,19,9.80
2015,12,08,06,20,10.00
2015,12,08,06,21,10.20
2015,12,08,06,22,10.30
2015,12,08,06,23,10.40
2015,12,08,06,24,10.40
2015,12,08,06,25,10.40
2015,12,08,06,26,10.40
2015,12,08,06,27,10.50
2015,12,08,06,28,10.60
2015,12,08,06,29,10.80
2015,12,08,06,30,11.00
2015,12,08,06,31,11.10
2015,12,08,06,32,11.20
2015,12,08,06,33,11.30
2015,12,08,06,34,11.40
2015,12,08,06,35,11.60
2015,12,08,06,36,11.80
2015,12,08,06,37,11.90
2015,12,08,06,38,12.00
2015,12,08,06,39,12.10
2015,12,08,06,40,12.30
2015,12,08,06,41,12.40
2015,12,08,06,42,12.50
2015,12,08,06,43,12.60
2015,12,08,06,44,12.70
2015,12,08,06,45,12.70
2015,12,08,06,46,12.80
2015,12,08,06,47,12.90
2015,12,08,06,48,13.00
2015,12,08,06,49,13.10
2015,12,08,06,50,13.10
2015,12,08,06,51,13.20
2015,12,08,06,52,13.30
2015,12,08,06,53,13.40
2015,12,08,06,54,13.40
2015,12,08,06,55,13.50
2015,12,08,06,56,13.60
2015,12,08,06,57,13.60
2015,12,08,06,58,13.60
2015,12,08,06,59,13.70
2015,12,08,07,00,13.70
2015,12,08,07,01,13.70
2015,12,08,07,02,13.80
2015,12,08,07,03,13.90
2015,12,08,07,04,13.90
2015,12,08,07,05,14.00
2015,12,08,07,06,14.10
2015,12,08,07,07,14.10
2015,12,08,07,08,14.20
2015,12,08,07,09,14.20
2015,12,08,07,10,14.20
2015,12,08,07,11,14.30
2015,12,08,07,12,14.20
2015,12,08,07,13,14.20
2015,12,08,07,14,14.30
2015,12,08,07,15,14.30
2015,12,08,07,16,14.30
2015,12,08,07,17,14.30
2015,12,08,07,18,14.20
2015,12,08,07,19,14.20
2015,12,08,07,20,14.20
2015,12,08,07,21,14.20
2015,12,08,07,22,14.30
2015,12,08,07,23,14.40
2015,12,08,07,24,14.40
2015,12,08,07,25,14.40
2015,12,08,07,26,14.40
2015,12,08,07,27,14.40
2015,12,08,07,28,14.40
2015,12,08,07,29,14.40
2015,12,08,07,30,14.30
2015,12,08,07,31,14.30
2015,12,08,07,32,14.30
2015,12,08,07,33,14.30
2015,12,08,07,34,14.30
2015,12,08,07,35,14.30
2015,12,08,07,36,14.30
2015,12,08,07,37,14.30
2015,12,08,07,38,14.30
2015,12,08,07,39,14.30
2015,12,08,07,40,14.30
2015,12,08,07,41,14.20
2015,12,08,07,42,14.30
2015,12,08,07,43,14.20
2015,12,08,07,44,14.20
2015,12,08,07,45,14.20
2015,12,08,07,46,14.20
2015,12,08,07,47,14.30
2015,12,08,07,48,14.30
2015,12,08,07,49,14.20
2015,12,08,07,50,14.20
2015,12,08,07,51,14.20
2015,12,08,07,52,14.10
2015,12,08,07,53,14.10
2015,12,08,07,54,14.10
2015,12,08,07,55,14.10
2015,12,08,07,56,14.00
2015,12,08,07,57,14.00
2015,12,08,07,58,14.00
2015,12,08,07,59,14.00
2015,12,08,08,00,14.00
2015,12,08,08,01,14.00
2015,12,08,08,02,14.00
2015,12,08,08,03,14.10
2015,12,08,08,04,14.10
2015,12,08,08,05,14.10
2015,12,08,08,06,14.10
2015,12,08,08,07,14.10
2015,12,08,08,08,14.20
2015,12,08,08,09,14.20
2015,12,08,08,10,14.20
2015,12,08,08,11,14.20
2015,12,08,08,12,14.20
2015,12,08,08,13,14.10
2015,12,08,08,14,14.10
2015,12,08,08,15,14.20
2015,12,08,08,16,14.20
2015,12,08,08,17,14.20
2015,12,08,08,18,14.20
2015,12,08,08,19,14.20
2015,12,08,08,20,14.10
2015,12,08,08,21,14.10
2015,12,08,08,22,14.10
2015,12,08,08,23,14.10
2015,12,08,08,24,14.20
2015,12,08,08,25,14.20
2015,12,08,08,26,14.20
2015,12,08,08,27,14.20
2015,12,08,08,28,14.20
2015,12,08,08,29,14.20
2015,12,08,08,30,14.20
2015,12,08,08,31,14.10
2015,12,08,08,32,14.10
2015,12,08,08,33,14.10
2015,12,08,08,34,14.10
2015,12,08,08,35,14.10
2015,12,08,08,36,14.10
2015,12,08,08,37,14.10
2015,12,08,08,38,14.10
2015,12,08,08,39,14.10
2015,12,08,08,40,14.00
2015,12,08,08,41,14.00
2015,12,08,08,42,14.00
2015,12,08,08,43,13.90
2015,12,08,08,44,13.90
2015,12,08,08,45,13.90
2015,12,08,08,46,13.90
2015,12,08,08,47,13.90
2015,12,08,08,48,13.90
2015,12,08,08,49,13.90
2015,12,08,08,50,13.90
2015,12,08,08,51,13.90
2015,12,08,08,52,13.90
2015,12,08,08,53,13.80
2015,12,08,08,54,13.80
2015,12,08,08,55,13.80
2015,12,08,08,56,13.80
2015,12,08,08,57,13.80
2015,12,08,08,58,13.70
2015,12,08,08,59,13.70
2015,12,08,09,00,13.70
2015,12,08,09,01,13.70
2015,12,08,09,02,13.60
2015,12,08,09,03,13.60
2015,12,08,09,04,13.70
2015,12,08,09,05,13.70
2015,12,08,09,06,13.70
2015,12,08,09,07,13.70
2015,12,08,09,08,13.80
2015,12,08,09,09,13.80
2015,12,08,09,10,13.80
2015,12,08,09,11,13.80
2015,12,08,09,12,13.80
2015,12,08,09,13,13.80
2015,12,08,09,14,13.80
2015,12,08,09,15,13.70
2015,12,08,09,16,13.70
2015,12,08,09,17,13.70
2015,12,08,09,18,13.70
2015,12,08,09,19,13.80
2015,12,08,09,20,13.80
2015,12,08,09,21,13.90
2015,12,08,09,22,13.90
2015,12,08,09,23,13.90
2015,12,08,09,24,13.90
2015,12,08,09,25,13.90
2015,12,08,09,26,13.90
2015,12,08,09,27,13.90
2015,12,08,09,28,13.80
2015,12,08,09,29,13.80
2015,12,08,09,30,13.80
2015,12,08,09,31,13.80
2015,12,08,09,32,13.80
2015,12,08,09,33,13.70
2015,12,08,09,34,13.70
2015,12,08,09,35,13.70
2015,12,08,09,36,13.60
2015,12,08,09,37,13.60
2015,12,08,09,38,13.60
2015,12,08,09,39,13.50
2015,12,08,09,40,13.50
2015,12,08,09,41,13.50
2015,12,08,09,42,13.50
2015,12,08,09,43,13.50
2015,12,08,09,44,13.60
2015,12,08,09,45,13.60
2015,12,08,09,46,13.60
2015,12,08,09,47,13.50
2015,12,08,09,48,13.50
2015,12,08,09,49,13.40
2015,12,08,09,50,13.40
2015,12,08,09,51,13.30
2015,12,08,09,52,13.30
2015,12,08,09,53,13.30
2015,12,08,09,54,13.30
2015,12,08,09,55,13.30
2015,12,08,09,56,13.20
2015,12,08,09,57,13.20
2015,12,08,09,58,13.20
2015,12,08,09,59,13.20
2015,12,08,10,00,13.10
2015,12,08,10,01,13.10
2015,12,08,10,02,13.10
2015,12,08,10,03,13.10
2015,12,08,10,04,13.10
2015,12,08,10,05,13.10
2015,12,08,10,06,13.00
2015,12,08,10,07,13.00
2015,12,08,10,08,12.90
2015,12,08,10,09,12.90
2015,12,08,10,10,12.80
2015,12,08,10,11,12.80
2015,12,08,10,12,12.80
2015,12,08,10,13,12.70
2015,12,08,10,14,12.70
2015,12,08,10,15,12.70
2015,12,08,10,16,12.70
2015,12,08,10,17,12.70
2015,12,08,10,18,12.70
2015,12,08,10,19,12.70
2015,12,08,10,20,12.70
2015,12,08,10,21,12.70
2015,12,08,10,22,12.70
2015,12,08,10,23,12.70
2015,12,08,10,24,12.60
2015,12,08,10,25,12.60
2015,12,08,10,26,12.60
2015,12,08,10,27,12.60
2015,12,08,10,28,12.60
2015,12,08,10,29,12.60
2015,12,08,10,30,12.60
2015,12,08,10,31,12.70
2015,12,08,10,32,12.70
2015,12,08,10,33,12.70
2015,12,08,10,34,12.70
2015,12,08,10,35,12.70
2015,12,08,10,36,12.70
2015,12,08,10,37,12.70
2015,12,08,10,38,12.70
2015,12,08,10,39,12.70
2015,12,08,10,40,12.70
2015,12,08,10,41,12.70
2015,12,08,10,42,12.70
2015,12,08,10,43,12.70
2015,12,08,10,44,12.70
2015,12,08,10,45,12.70
2015,12,08,10,46,12.70
2015,12,08,10,47,12.70
2015,12,08,10,48,12.70
2015,12,08,10,49,12.70
2015,12,08,10,50,12.70
2015,12,08,10,51,12.80
2015,12,08,10,52,12.80
2015,12,08,10,53,12.90
2015,12,08,10,54,12.90
2015,12,08,10,55,12.90
2015,12,08,10,56,12.90
2015,12,08,10,57,12.90
2015,12,08,10,58,12.90
2015,12,08,10,59,12.90
2015,12,08,11,00,12.90
2015,12,08,11,01,12.90
2015,12,08,11,02,12.80
2015,12,08,11,03,12.90
2015,12,08,11,04,12.80
2015,12,08,11,05,12.80
2015,12,08,11,06,12.80
2015,12,08,11,07,12.80
2015,12,08,11,08,12.80
2015,12,08,11,09,12.80
2015,12,08,11,10,12.80
2015,12,08,11,11,12.80
2015,12,08,11,12,12.80
2015,12,08,11,13,12.90
2015,12,08,11,14,12.90
2015,12,08,11,15,12.90
2015,12,08,11,16,13.00
2015,12,08,11,17,13.00
2015,12,08,11,18,12.90
2015,12,08,11,19,12.90
2015,12,08,11,20,12.90
2015,12,08,11,21,12.90
2015,12,08,11,22,12.90
2015,12,08,11,23,12.90
2015,12,08,11,24,12.90
2015,12,08,11,25,12.90
2015,12,08,11,26,12.90
2015,12,08,11,27,12.90
2015,12,08,11,28,12.90
2015,12,08,11,29,12.80
2015,12,08,11,30,12.80
2015,12,08,11,31,12.80
2015,12,08,11,32,12.80
2015,12,08,11,33,12.80
2015,12,08,11,34,12.80
2015,12,08,11,35,12.80
2015,12,08,11,36,12.80
2015,12,08,11,37,12.80
2015,12,08,11,38,12.80
2015,12,08,11,39,12.70
2015,12,08,11,40,12.70
2015,12,08,11,41,12.60
2015,12,08,11,42,12.60
2015,12,08,11,43,12.50
2015,12,08,11,44,12.50
2015,12,08,11,45,12.50
2015,12,08,11,46,12.50
2015,12,08,11,47,12.60
2015,12,08,11,48,12.60
2015,12,08,11,49,12.70
2015,12,08,11,50,12.70
2015,12,08,11,51,12.80
2015,12,08,11,52,12.80
2015,12,08,11,53,12.80
2015,12,08,11,54,12.70
2015,12,08,11,55,12.70
2015,12,08,11,56,12.60
2015,12,08,11,57,12.50
2015,12,08,11,58,12.50
2015,12,08,11,59,12.40
2015,12,08,12,00,12.30
2015,12,08,12,01,12.30
2015,12,08,12,02,12.30
2015,12,08,12,03,12.20
2015,12,08,12,04,12.20
2015,12,08,12,05,12.20
2015,12,08,12,06,12.10
2015,12,08,12,07,12.10
2015,12,08,12,08,12.00
2015,12,08,12,09,12.00
2015,12,08,12,10,11.90
2015,12,08,12,11,11.90
2015,12,08,12,12,11.90
2015,12,08,12,13,11.90
2015,12,08,12,14,11.90
2015,12,08,12,15,11.90
2015,12,08,12,16,11.90
2015,12,08,12,17,11.80
2015,12,08,12,18,11.80
2015,12,08,12,19,11.90
2015,12,08,12,20,11.90
2015,12,08,12,21,11.90
2015,12,08,12,22,11.90
2015,12,08,12,23,11.90
2015,12,08,12,24,11.90
2015,12,08,12,25,11.90
2015,12,08,12,26,11.90
2015,12,08,12,27,11.90
2015,12,08,12,28,11.90
2015,12,08,12,29,11.90
2015,12,08,12,30,11.90
2015,12,08,12,31,11.90
2015,12,08,12,32,11.90
2015,12,08,12,33,11.90
2015,12,08,12,34,11.90
2015,12,08,12,35,11.90
2015,12,08,12,36,11.90
2015,12,08,12,37,11.90
2015,12,08,12,38,11.90
2015,12,08,12,39,11.80
2015,12,08,12,40,11.80
2015,12,08,12,41,11.80
2015,12,08,12,42,11.80
2015,12,08,12,43,11.80
2015,12,08,12,44,11.80
2015,12,08,12,45,11.80
2015,12,08,12,46,11.80
2015,12,08,12,47,11.80
2015,12,08,12,48,11.80
2015,12,08,12,49,11.80
2015,12,08,12,50,11.80
2015,12,08,12,51,11.80
2015,12,08,12,52,11.80
2015,12,08,12,53,11.80
2015,12,08,12,54,11.80
2015,12,08,12,55,11.80
2015,12,08,12,56,11.80
2015,12,08,12,57,11.80
2015,12,08,12,58,11.80
2015,12,08,12,59,11.80
2015,12,08,13,00,11.80
2015,12,08,13,01,11.80
2015,12,08,13,02,11.80
2015,12,08,13,03,11.80
2015,12,08,13,04,11.80
2015,12,08,13,05,11.80
2015,12,08,13,06,11.80
2015,12,08,13,07,11.80
2015,12,08,13,08,11.80
2015,12,08,13,09,11.80
2015,12,08,13,10,11.80
2015,12,08,13,11,11.80
2015,12,08,13,12,11.80
2015,12,08,13,13,11.80
2015,12,08,13,14,11.80
2015,12,08,13,15,11.80
2015,12,08,13,16,11.80
2015,12,08,13,17,11.80
2015,12,08,13,18,11.80
2015,12,08,13,19,11.80
2015,12,08,13,20,11.70
2015,12,08,13,21,11.70
2015,12,08,13,22,11.70
2015,12,08,13,23,11.70
2015,12,08,13,24,11.70
2015,12,08,13,25,11.70
2015,12,08,13,26,11.70
2015,12,08,13,27,11.70
2015,12,08,13,28,11.70
2015,12,08,13,29,11.70
2015,12,08,13,30,11.70
2015,12,08,13,31,11.80
2015,12,08,13,32,11.80
2015,12,08,13,33,11.80
2015,12,08,13,34,11.80
2015,12,08,13,35,11.80
2015,12,08,13,36,11.80
2015,12,08,13,37,11.80
2015,12,08,13,38,11.80
2015,12,08,13,39,11.80
2015,12,08,13,40,11.80
2015,12,08,13,41,11.80
2015,12,08,13,42,11.80
2015,12,08,13,43,11.80
2015,12,08,13,44,11.80
2015,12,08,13,45,11.80
2015,12,08,13,46,11.80
2015,12,08,13,47,11.80
2015,12,08,13,48,11.80
2015,12,08,13,49,11.80
2015,12,08,13,50,11.80
2015,12,08,13,51,11.80
2015,12,08,13,52,11.80
2015,12,08,13,53,11.80
2015,12,08,13,54,11.80
2015,12,08,13,55,11.80
2015,12,08,13,56,11.80
2015,12,08,13,57,11.80
2015,12,08,13,58,11.80
2015,12,08,13,59,11.80
2015,12,08,14,00,11.80
2015,12,08,14,01,11.80
2015,12,08,14,02,11.80
2015,12,08,14,03,11.80
2015,12,08,14,04,11.80
2015,12,08,14,05,11.80
2015,12,08,14,06,11.80
2015,12,08,14,07,11.80
2015,12,08,14,08,11.70
2015,12,08,14,09,11.70
2015,12,08,14,10,11.70
2015,12,08,14,11,11.70
2015,12,08,14,12,11.70
2015,12,08,14,13,11.70
2015,12,08,14,14,11.70
2015,12,08,14,15,11.70
2015,12,08,14,16,11.70
2015,12,08,14,17,11.70
2015,12,08,14,18,11.70
2015,12,08,14,19,11.70
2015,12,08,14,20,11.70
2015,12,08,14,21,11.70
2015,12,08,14,22,11.70
2015,12,08,14,23,11.70
2015,12,08,14,24,11.70
2015,12,08,14,25,11.70
2015,12,08,14,26,11.70
2015,12,08,14,27,11.70
2015,12,08,14,28,11.80
2015,12,08,14,29,11.80
2015,12,08,14,30,11.80
2015,12,08,14,31,11.80
2015,12,08,14,32,11.80
2015,12,08,14,33,11.80
2015,12,08,14,34,11.80
2015,12,08,14,35,11.80
2015,12,08,14,36,11.80
2015,12,08,14,37,11.80
2015,12,08,14,38,11.80
2015,12,08,14,39,11.80
2015,12,08,14,40,11.80
2015,12,08,14,41,11.80
2015,12,08,14,42,11.80
2015,12,08,14,43,11.80
2015,12,08,14,44,11.80
2015,12,08,14,45,11.80
2015,12,08,14,46,11.80
2015,12,08,14,47,11.80
2015,12,08,14,48,11.80
2015,12,08,14,49,11.80
2015,12,08,14,50,11.80
2015,12,08,14,51,11.80
2015,12,08,14,52,11.80
2015,12,08,14,53,11.80
2015,12,08,14,54,11.80
2015,12,08,14,55,11.80
2015,12,08,14,56,11.80
2015,12,08,14,57,11.80
2015,12,08,14,58,11.80
2015,12,08,14,59,11.80
2015,12,08,15,00,11.80
2015,12,08,15,01,11.80
2015,12,08,15,02,11.80
2015,12,08,15,03,11.80
2015,12,08,15,04,11.80
2015,12,08,15,05,11.80
2015,12,08,15,06,11.80
2015,12,08,15,07,11.80
2015,12,08,15,08,11.80
2015,12,08,15,09,11.70
2015,12,08,15,10,11.70
2015,12,08,15,11,11.70
2015,12,08,15,12,11.70
2015,12,08,15,13,11.70
2015,12,08,15,14,11.70
2015,12,08,15,15,11.70
2015,12,08,15,16,11.70
2015,12,08,15,17,11.70
2015,12,08,15,18,11.70
2015,12,08,15,19,11.70
2015,12,08,15,20,11.70
2015,12,08,15,21,11.70
2015,12,08,15,22,11.70
2015,12,08,15,23,11.70
2015,12,08,15,24,11.60
2015,12,08,15,25,11.60
2015,12,08,15,26,11.60
2015,12,08,15,27,11.60
2015,12,08,15,28,11.60
2015,12,08,15,29,11.60
2015,12,08,15,30,11.60
2015,12,08,15,31,11.60
2015,12,08,15,32,11.60
2015,12,08,15,33,11.60
2015,12,08,15,34,11.60
2015,12,08,15,35,11.50
2015,12,08,15,36,11.50
2015,12,08,15,37,11.50
2015,12,08,15,38,11.50
2015,12,08,15,39,11.50
2015,12,08,15,40,11.50
2015,12,08,15,41,11.60
2015,12,08,15,42,11.60
2015,12,08,15,43,11.60
2015,12,08,15,44,11.50
2015,12,08,15,45,11.50
2015,12,08,15,46,11.50
2015,12,08,15,47,11.50
2015,12,08,15,48,11.40
2015,12,08,15,49,11.40
2015,12,08,15,50,11.40
2015,12,08,15,51,11.40
2015,12,08,15,52,11.40
2015,12,08,15,53,11.40
2015,12,08,15,54,11.30
2015,12,08,15,55,11.30
2015,12,08,15,56,11.30
2015,12,08,15,57,11.30
2015,12,08,15,58,11.30
2015,12,08,15,59,11.30
2015,12,08,16,00,11.30
2015,12,08,16,01,11.30
2015,12,08,16,02,11.30
2015,12,08,16,03,11.30
2015,12,08,16,04,11.30
2015,12,08,16,05,11.20
2015,12,08,16,06,11.20
2015,12,08,16,07,11.20
2015,12,08,16,08,11.20
2015,12,08,16,09,11.20
2015,12,08,16,10,11.20
2015,12,08,16,11,11.20
2015,12,08,16,12,11.20
2015,12,08,16,13,11.20
2015,12,08,16,14,11.20
2015,12,08,16,15,11.20
2015,12,08,16,16,11.20
2015,12,08,16,17,11.20
2015,12,08,16,18,11.20
2015,12,08,16,19,11.20
2015,12,08,16,20,11.20
2015,12,08,16,21,11.20
2015,12,08,16,22,11.10
2015,12,08,16,23,11.10
2015,12,08,16,24,11.10
2015,12,08,16,25,11.10
2015,12,08,16,26,11.10
2015,12,08,16,27,11.10
2015,12,08,16,28,11.10
2015,12,08,16,29,11.10
2015,12,08,16,30,11.10
2015,12,08,16,31,11.10
2015,12,08,16,32,11.10
2015,12,08,16,33,11.10
2015,12,08,16,34,11.10
2015,12,08,16,35,11.10
2015,12,08,16,36,11.00
2015,12,08,16,37,11.00
2015,12,08,16,38,11.00
2015,12,08,16,39,10.90
2015,12,08,16,40,10.90
2015,12,08,16,41,10.90
2015,12,08,16,42,10.90
2015,12,08,16,43,10.80
2015,12,08,16,44,10.80
2015,12,08,16,45,10.80
2015,12,08,16,46,10.80
2015,12,08,16,47,10.80
2015,12,08,16,48,10.80
2015,12,08,16,49,10.80
2015,12,08,16,50,10.70
2015,12,08,16,51,10.70
2015,12,08,16,52,10.60
2015,12,08,16,53,10.60
2015,12,08,16,54,10.60
2015,12,08,16,55,10.60
2015,12,08,16,56,10.50
2015,12,08,16,57,10.50
2015,12,08,16,58,10.40
2015,12,08,16,59,10.40
2015,12,08,17,00,10.40
2015,12,08,17,01,10.40
2015,12,08,17,02,10.50
2015,12,08,17,03,10.50
2015,12,08,17,04,10.50
2015,12,08,17,05,10.60
2015,12,08,17,06,10.60
2015,12,08,17,07,10.60
2015,12,08,17,08,10.70
2015,12,08,17,09,10.70
2015,12,08,17,10,10.70
2015,12,08,17,11,10.70
2015,12,08,17,12,10.70
2015,12,08,17,13,10.80
2015,12,08,17,14,10.80
2015,12,08,17,15,10.80
2015,12,08,17,16,10.80
2015,12,08,17,17,10.80
2015,12,08,17,18,10.80
2015,12,08,17,19,10.80
2015,12,08,17,20,10.80
2015,12,08,17,21,10.80
2015,12,08,17,22,10.80
2015,12,08,17,23,10.80
2015,12,08,17,24,10.80
2015,12,08,17,25,10.80
2015,12,08,17,26,10.80
2015,12,08,17,27,10.80
2015,12,08,17,28,10.80
2015,12,08,17,29,10.80
2015,12,08,17,30,10.70
2015,12,08,17,31,10.70
2015,12,08,17,32,10.70
2015,12,08,17,33,10.70
2015,12,08,17,34,10.60
2015,12,08,17,35,10.60
2015,12,08,17,36,10.60
2015,12,08,17,37,10.50